User: anonymous   Login
Location: Great Northern Moose Lodge
(44.6765°N, 71.1811°W)
Time: 19:05:45
(UTC-04:00)
Language:

Terra - Orbit

View from above orbital plane
View from above orbital plane
View from above satellite
View from above satellite

Ground track
Ground track

The orbit data is extracted from the following two-line orbital elements,

1 25994U 99068A   18109.81486650  .00000002  00000-0  10414-4 0  9994
2 25994  98.2072 185.5215 0000780 117.7121 242.4150 14.57094718975321
Epoch (UTC): 19 April 2018 19:33:24
Eccentricity: 0.0000780
inclination: 98.2072°
perigee height: 702 km
apogee height: 703 km
right ascension of ascending node: 185.5215°
argument of perigee: 117.7121°
revolutions per day: 14.57094718
mean anomaly at epoch: 242.4150°
orbit number at epoch: 97532

The dashed part of the orbit path shows where the satellite is in the earth's shadow,  

DLR